Location: El Álamo
(40.2307°N, 3.9945°W)
Time: 04:09:53
(UTC+00:00)

BlueWalker 3 - Pass Details

Date: 19 May 2025
Orbit: 460 x 472 km, 53.2° (Epoch: 23 June)

Event Time Altitude Azimuth Distance (km) Brightness Sun altitude
Rises 22:40:57 0° 308° (NW) 2,496 6.4 -26.1°
Reaches altitude 10° 22:43:06 10° 307° (NW) 1,620 5.3 -26.3°
Enters shadow 22:45:00 29° 303° (WNW) 884 3.6 -26.4°
